Total_Precipitation_Accumulation
0.00 0.00 0.00 0.00 0.00 0.01 0.01 0.02 0.02 0.02 0.02 0.02 0.04 0.07 0.09 0.12 0.14 0.15 0.18 0.23 0.26 0.27 0.32 0.39 0.43 0.46 0.50 0.48 0.46 0.42 0.40 0.45 0.44 0.11 0.03 0.06 0.14 0.20 0.21 0.21 0.23 0.22 0.19
0.00 0.00 0.00 0.00 0.00 0.01 0.01 0.01 0.01 0.02 0.02 0.03 0.07 0.13 0.16 0.19 0.19 0.19 0.23 0.33 0.44 0.45 0.42 0.44 0.47 0.50 0.56 0.58 0.59 0.53 0.44 0.38 0.41 0.26 0.07 0.06 0.11 0.22 0.27 0.26 0.25 0.23 0.20
0.00 0.00 0.00 0.00 0.00 0.01 0.01 0.01 0.01 0.02 0.02 0.03 0.09 0.20 0.26 0.31 0.31 0.29 0.32 0.38 0.53 0.66 0.68 0.68 0.63 0.59 0.60 0.60 0.64 0.61 0.52 0.42 0.39 0.36 0.20 0.10 0.12 0.21 0.33 0.36 0.32 0.28 0.24
0.00 0.00 0.00 0.00 0.00 0.00 0.01 0.01 0.01 0.02 0.03 0.05 0.09 0.19 0.30 0.42 0.54 0.56 0.58 0.56 0.59 0.68 0.75 0.80 0.81 0.83 0.78 0.73 0.72 0.67 0.62 0.59 0.51 0.49 0.37 0.23 0.19 0.24 0.40 0.49 0.43 0.35 0.31
0.00 0.00 0.00 0.00 0.00 0.00 0.00 0.00 0.01 0.01 0.03 0.05 0.07 0.11 0.21 0.49 0.89 0.92 0.83 0.75 0.62 0.55 0.54 0.58 0.68 0.84 0.93 0.98 1.02 0.93 0.88 0.92 0.83 0.74 0.62 0.47 0.36 0.40 0.51 0.57 0.63 0.54 0.44
0.00 0.00 0.00 0.00 0.00 0.01 0.00 0.01 0.01 0.01 0.03 0.04 0.05 0.06 0.14 0.42 0.86 0.92 0.71 0.53 0.39 0.37 0.38 0.37 0.41 0.57 0.69 0.81 0.96 1.00 1.06 1.20 1.24 1.14 0.93 0.75 0.52 0.47 0.54 0.69 0.82 0.88 0.73
0.00 0.00 0.00 0.00 0.00 0.01 0.01 0.01 0.01 0.02 0.03 0.05 0.04 0.03 0.06 0.27 0.66 0.76 0.54 0.32 0.22 0.21 0.22 0.23 0.24 0.34 0.45 0.49 0.60 0.70 0.81 0.97 1.20 1.31 1.25 0.92 0.65 0.51 0.66 0.83 0.87 0.95 0.84
0.00 0.00 0.00 0.00 0.00 0.01 0.01 0.01 0.01 0.02 0.02 0.04 0.04 0.03 0.03 0.13 0.51 0.68 0.50 0.25 0.16 0.14 0.16 0.15 0.13 0.18 0.32 0.45 0.56 0.58 0.59 0.71 0.99 1.24 1.37 1.18 0.94 0.81 0.94 1.16 1.25 1.24 1.05
0.00 0.00 0.00 0.00 0.00 0.01 0.01 0.01 0.02 0.02 0.02 0.03 0.03 0.02 0.02 0.05 0.33 0.67 0.58 0.27 0.15 0.12 0.15 0.16 0.12 0.11 0.26 0.44 0.48 0.45 0.40 0.47 0.63 0.93 1.15 1.20 1.17 1.21 1.31 1.57 1.71 1.66 1.49
0.00 0.00 0.00 0.00 0.01 0.01 0.01 0.01 0.02 0.02 0.02 0.02 0.02 0.02 0.02 0.02 0.18 0.59 0.73 0.34 0.17 0.13 0.12 0.14 0.19 0.23 0.33 0.41 0.39 0.40 0.46 0.42 0.42 0.49 0.59 0.69 0.78 0.85 1.08 1.38 1.56 1.64 1.61
0.00 0.00 0.00 0.00 0.01 0.01 0.01 0.01 0.02 0.02 0.02 0.02 0.02 0.02 0.02 0.02 0.07 0.36 0.74 0.56 0.29 0.22 0.20 0.18 0.18 0.24 0.31 0.35 0.39 0.39 0.48 0.48 0.45 0.53 0.55 0.53 0.58 0.69 0.82 1.08 1.35 1.54 1.67
0.00 0.00 0.00 0.01 0.01 0.01 0.01 0.02 0.02 0.02 0.02 0.02 0.02 0.02 0.02 0.02 0.07 0.24 0.46 0.56 0.44 0.27 0.22 0.17 0.17 0.22 0.27 0.33 0.34 0.37 0.41 0.43 0.46 0.46 0.43 0.43 0.50 0.61 0.73 0.91 1.13 1.30 1.39
0.00 0.00 0.00 0.01 0.01 0.01 0.02 0.02 0.03 0.03 0.05 0.06 0.06 0.04 0.03 0.04 0.11 0.24 0.26 0.28 0.34 0.30 0.29 0.27 0.22 0.24 0.25 0.21 0.21 0.27 0.31 0.32 0.40 0.43 0.37 0.34 0.41 0.55 0.63 0.74 0.88 1.06 1.19
0.00 0.00 0.01 0.01 0.01 0.02 0.02 0.03 0.04 0.06 0.14 0.17 0.14 0.10 0.09 0.12 0.25 0.40 0.29 0.18 0.22 0.28 0.29 0.26 0.22 0.21 0.18 0.14 0.12 0.14 0.17 0.24 0.32 0.38 0.34 0.29 0.32 0.42 0.55 0.68 0.83 0.98 1.16
0.00 0.01 0.01 0.01 0.02 0.03 0.03 0.03 0.05 0.07 0.20 0.30 0.23 0.23 0.29 0.42 0.46 0.52 0.44 0.37 0.39 0.43 0.40 0.36 0.27 0.21 0.19 0.16 0.12 0.10 0.12 0.17 0.23 0.26 0.29 0.30 0.32 0.40 0.48 0.60 0.81 0.97 1.12
0.00 0.01 0.01 0.02 0.03 0.03 0.03 0.03 0.04 0.07 0.12 0.14 0.15 0.21 0.24 0.42 0.43 0.35 0.33 0.32 0.38 0.43 0.43 0.40 0.25 0.18 0.18 0.16 0.15 0.12 0.10 0.13 0.16 0.20 0.26 0.30 0.34 0.41 0.48 0.55 0.72 0.92 1.03
0.01 0.02 0.03 0.03 0.03 0.04 0.05 0.07 0.09 0.07 0.06 0.06 0.08 0.11 0.19 0.29 0.29 0.25 0.25 0.22 0.23 0.25 0.30 0.25 0.18 0.15 0.15 0.14 0.14 0.14 0.12 0.10 0.14 0.20 0.23 0.26 0.31 0.37 0.44 0.51 0.61 0.77 0.90
0.01 0.02 0.03 0.04 0.05 0.07 0.08 0.10 0.13 0.14 0.11 0.06 0.04 0.06 0.12 0.18 0.20 0.19 0.19 0.21 0.18 0.13 0.16 0.16 0.16 0.16 0.16 0.17 0.16 0.15 0.14 0.13 0.16 0.18 0.19 0.21 0.27 0.34 0.40 0.44 0.52 0.67 0.80
0.01 0.02 0.04 0.06 0.07 0.08 0.10 0.12 0.13 0.14 0.13 0.10 0.07 0.06 0.07 0.10 0.11 0.12 0.15 0.19 0.18 0.14 0.13 0.14 0.15 0.17 0.17 0.17 0.17 0.16 0.16 0.15 0.14 0.16 0.17 0.18 0.22 0.31 0.36 0.38 0.45 0.55 0.72
0.01 0.03 0.06 0.07 0.08 0.09 0.11 0.14 0.16 0.18 0.17 0.15 0.12 0.11 0.16 0.21 0.19 0.14 0.13 0.16 0.19 0.16 0.14 0.15 0.15 0.16 0.18 0.18 0.18 0.18 0.18 0.16 0.15 0.16 0.16 0.16 0.19 0.26 0.31 0.34 0.41 0.49 0.60
0.03 0.04 0.06 0.07 0.09 0.12 0.16 0.19 0.21 0.24 0.23 0.18 0.13 0.12 0.28 0.37 0.27 0.18 0.16 0.17 0.20 0.20 0.19 0.18 0.17 0.17 0.17 0.18 0.19 0.19 0.18 0.15 0.13 0.14 0.15 0.15 0.17 0.20 0.22 0.28 0.34 0.41 0.51
0.06 0.06 0.07 0.10 0.13 0.16 0.20 0.22 0.24 0.25 0.23 0.20 0.15 0.11 0.18 0.21 0.19 0.19 0.18 0.16 0.17 0.19 0.21 0.24 0.22 0.19 0.20 0.21 0.22 0.22 0.19 0.15 0.12 0.14 0.15 0.14 0.15 0.17 0.19 0.23 0.27 0.34 0.42
0.08 0.10 0.11 0.12 0.14 0.18 0.20 0.20 0.22 0.24 0.23 0.20 0.19 0.18 0.17 0.18 0.18 0.19 0.19 0.18 0.18 0.18 0.18 0.21 0.24 0.20 0.18 0.18 0.20 0.23 0.23 0.17 0.14 0.16 0.19 0.18 0.16 0.15 0.17 0.20 0.23 0.30 0.39
0.11 0.13 0.16 0.17 0.18 0.20 0.23 0.23 0.23 0.24 0.24 0.23 0.21 0.19 0.19 0.18 0.18 0.17 0.17 0.17 0.17 0.18 0.18 0.21 0.23 0.21 0.19 0.18 0.17 0.17 0.17 0.16 0.19 0.22 0.22 0.23 0.20 0.17 0.19 0.22 0.22 0.27 0.36
0.13 0.16 0.18 0.21 0.25 0.27 0.27 0.26 0.25 0.24 0.24 0.22 0.20 0.20 0.18 0.17 0.16 0.15 0.14 0.15 0.16 0.16 0.15 0.19 0.22 0.22 0.20 0.17 0.16 0.15 0.15 0.17 0.25 0.35 0.42 0.40 0.30 0.22 0.23 0.25 0.25 0.27 0.34
0.14 0.17 0.21 0.25 0.28 0.30 0.32 0.32 0.28 0.26 0.25 0.23 0.21 0.21 0.20 0.19 0.18 0.16 0.15 0.17 0.18 0.16 0.15 0.17 0.19 0.22 0.20 0.17 0.16 0.16 0.17 0.22 0.28 0.36 0.50 0.57 0.43 0.30 0.26 0.29 0.27 0.29 0.34